Location: Dover
(48.8500°N, 53.9833°W)
Time: 07:42:27
(UTC+00:00)

SL-12 R/B(2) - Pass Details

Date: 14 November 2025
Orbit: 1173 x 2175 km, 63.4° (Epoch: 13 December)

Event Time Altitude Azimuth Distance (km) Brightness Sun altitude
Rises 21:21:28 0° 200° (SSW) 4,159 7.3 -14.0°
Reaches altitude 10° 21:24:06 10° 196° (SSW) 3,266 6.6 -14.4°
Maximum altitude 21:31:45 58° 120° (ESE) 1,641 4.4 -15.6°
Enters shadow 21:40:07 13° 46° (NE) 3,632 6.0 -17.0°
